This demonstration page uses our WeatherBlox Daily Observations layout. Learn more.

Left ArrowRight Arrow

39.08367, -84.50855

Hourly Observations for April 7, 2015

Temp ( °F °C ) Dew Point ( °F °C ) Humidity (%) Winds ( mph kmh ) Pressure ( in mb ) Visibility ( mi km ) Precip ( " mm )
12:17 am 00:17 Cloudy with Fog 50 10 50 10 100 100 Calm 30.09 1019 0.5 0.80467 0 0
12:28 am 00:28 Cloudy with Fog 52 11 52 11 100 100 Calm 30.09 1019 0.5 0.80467 0 0
12:36 am 00:36 Cloudy with Fog 52 11.1 52 11.1 100 100 Calm 30.09 1019 0.5 0.80467 0 0
12:44 am 00:44 Cloudy with Fog 52 11 52 11 100 100 Calm 30.09 1019 0.5 0.80467 0 0
12:51 am 00:51 Cloudy with Fog 52 11 52 11 100 100 Calm 30.09 1019 0.25 0.402335 0 0
12:53 am 00:53 Cloudy with Fog 51 10.6 51 10.6 100 100 Calm 30.09 1019 0.25 0.402335 0 0
1:26 am 01:26 Cloudy with Fog 52 11 52 11 100 100 Calm 30.09 1019 0.5 0.80467 0 0
1:53 am 01:53 Cloudy with Mist and Fog 51 10.6 51 10.6 100 100 Calm 30.08 1019 1 1.60934 0 0
2:04 am 02:04 Cloudy with Mist and Fog 52 11 52 11 100 100 Calm 30.09 1019 3 4.82802 0 0
2:53 am 02:53 Cloudy 53 11.7 53 11.7 100 100 Calm 30.07 1018 8 12.87472 0 0
3:53 am 03:53 Cloudy 52 11.1 52 11.1 100 100 Calm 30.06 1018 7 11.26538 0 0
4:00 am 04:00 Cloudy with Mist and Fog 51 10.6 51 10.6 100 100 Calm 30.06 1018 6 9.65604 0 0
4:53 am 04:53 Cloudy 56 13.3 56 13.3 100 100 SSW 6 9 30.05 1018 10 16.0934 0 0
5:10 am 05:10 Cloudy 57 14 57 14 100 100 S 5 7 30.06 1018 10 16.0934 0 0
5:51 am 05:51 Cloudy with Nearby Thunderstorms 57 14 57 14 100 100 SSW 6 9 30.06 1018 10 16.0934 0.02 0.508
5:53 am 05:53 Cloudy with Nearby Thunderstorms 57 13.9 57 13.9 100 100 SSW 5 7 30.04 1017 10 16.0934 0.02 0.508
6:09 am 06:09 Cloudy with Light Rain 57 13.9 57 13.9 100 100 SSW 3 6 30.06 1018 10 16.0934 0 0.0254
6:28 am 06:28 Cloudy with Nearby Thunderstorms 57 14 57 14 100 100 WSW 5 7 30.06 1018 10 16.0934 0 0
6:53 am 06:53 Cloudy 57 13.9 57 13.9 100 100 S 3 6 30.04 1017 10 16.0934 0 0.0254
7:53 am 07:53 Cloudy 58 14.4 58 14.4 100 100 S 5 7 30.06 1018 8 12.87472 0 0
8:53 am 08:53 Cloudy with Light Rain 59 15 58 14.4 96 96 S 7 11 30.07 1018 7 11.26538 0 0.0254
9:53 am 09:53 Cloudy with Light Rain 59 15 59 15 100 100 S 12 19 30.05 1018 5 8.0467 0.02 0.508
10:07 am 10:07 Cloudy with Light Rain 59 15 59 15 100 100 SSW 8 13 30.03 1017 8 12.87472 0 0.0254
10:27 am 10:27 Cloudy with Light Rain 59 15 59 15 100 100 S 5 7 30.03 1017 8 12.87472 0 0.0254
10:53 am 10:53 Cloudy with Light Rain 60 15.6 59 15 96 96 Calm 30.05 1018 9 14.48406 0 0.0254
11:37 am 11:37 Cloudy 61 16.1 60 15.6 97 97 S 3 6 30.03 1017 10 16.0934 0.01 0.254
11:53 am 11:53 Mostly Cloudy 61 16.1 60 15.6 97 97 Calm 30.06 1018 10 16.0934 0.01 0.254
12:49 pm 12:49 Mostly Cloudy 63 17 61 16 94 94 SE 3 6 30.03 1017 10 16.0934 0 0
12:53 pm 12:53 Cloudy 63 17.2 61 16.1 93 93 Calm 30.05 1018 10 16.0934 0 0
1:53 pm 13:53 Cloudy 64 17.8 61 16.1 90 90 S 9 15 30.06 1018 10 16.0934 0 0
2:46 pm 14:46 Cloudy with Nearby Thunderstorms 64 18 63 17 94 94 S 5 7 30.03 1017 10 16.0934 0 0
2:53 pm 14:53 Cloudy with Light Thunderstorms 64 17.8 62 16.7 93 93 SW 3 6 30.06 1018 10 16.0934 0 0.0254
3:05 pm 15:05 Cloudy with Light Thunderstorms 64 17.8 62 16.7 93 93 Calm 30.03 1017 1.75 2.816345 0.05 1.27
3:12 pm 15:12 Cloudy with Rain 63 17 63 17 100 100 N 3 6 30.03 1017 4 6.43736 0 0
3:50 pm 15:50 Cloudy with Nearby Thunderstorms 63 17 63 17 100 100 NE 5 7 30 1016 7 11.26538 0 0
3:53 pm 15:53 Cloudy with Light Rain 63 17.2 62 16.7 97 97 ENE 5 7 30.03 1017 7 11.26538 0.13 3.302
4:53 pm 16:53 Cloudy 65 18.3 64 17.8 97 97 Calm 30.01 1016 10 16.0934 0 0.0254
5:53 pm 17:53 Cloudy 64 17.8 63 17.2 96 96 Calm 30.02 1017 10 16.0934 0 0.0254
6:53 pm 18:53 Cloudy 63 17.2 62 16.7 97 97 ENE 5 7 29.97 1015 8 12.87472 0.01 0.254
7:10 pm 19:10 Partly Cloudy 63 17 61 16 94 94 N 5 7 29.97 1015 10 16.0934 0 0
7:26 pm 19:26 Mostly Cloudy 63 17 63 17 100 100 NE 6 9 29.97 1015 10 16.0934 0 0
7:53 pm 19:53 Cloudy 63 17.2 62 16.7 97 97 NNE 6 9 29.99 1016 10 16.0934 0 0
8:53 pm 20:53 Cloudy 61 16.1 61 16.1 100 100 SE 3 6 29.99 1016 9 14.48406 0 0.0254
9:10 pm 21:10 Mostly Cloudy 61 16 61 16 100 100 WSW 5 7 29.97 1015 9 14.48406 0 0
9:32 pm 21:32 Partly Cloudy 61 16 61 16 100 100 S 3 6 30 1016 9 14.48406 0 0
9:53 pm 21:53 Mostly Clear 60 15.6 60 15.6 100 100 SSW 8 13 30.03 1017 9 14.48406 0 0
10:53 pm 22:53 Clear 59 15 59 15 100 100 S 3 6 30.04 1017 10 16.0934 0 0
11:42 pm 23:42 Clear with Mist and Fog 55 13 55 13 100 100 Calm 30.03 1017 1.5 2.41401 0 0
11:51 pm 23:51 Clear with Fog 55 13 55 13 100 100 Calm 30.06 1018 0.5 0.80467 0 0
11:53 pm 23:53 Clear with Fog 55 12.8 55 12.8 100 100 Calm 30.04 1017 0.5 0.80467 0 0
11:58 pm 23:58 Mostly Cloudy with Fog 55 13 55 13 100 100 Calm 30.03 1017 0.25 0.402335 0 0

Powered by AerisWeather